RH
99 98 99 98 97 98 99 99 99 98 79 48 24 22 22 22 22 21 20 19 18 19 19 19 17 15 17 27 20 20 26 39 35 36 38 49 50 48 54 54 50 47 40 37 38 38 40
92 97 98 98 97 87 97 97 99 99 82 42 27 26 27 26 24 21 19 18 17 18 20 22 21 18 23 57 14 22 36 39 35 39 45 50 52 57 57 54 55 47 49 47 43 40 42
97 96 94 97 77 97 97 98 96 95 54 34 33 30 28 26 23 20 18 16 14 16 18 23 26 22 37 14 14 33 36 34 38 44 45 44 43 51 57 57 51 48 58 55 48 44 45
94 86 82 77 88 96 92 70 56 46 38 35 32 29 27 25 22 19 16 14 13 15 20 26 26 36 38 15 21 42 42 38 44 48 46 49 47 44 51 50 52 55 54 69 47 38 40
69 61 80 93 84 75 71 66 48 35 44 44 40 36 31 28 26 22 18 14 16 20 26 28 29 39 35 27 19 24 42 37 42 50 47 50 47 46 48 66 77 70 73 67 54 36 35
66 76 84 84 80 81 76 68 42 18 14 21 21 25 36 42 43 40 28 23 31 47 45 37 65 82 34 28 30 30 33 39 49 52 55 54 50 64 70 81 75 74 72 62 60 42 40
74 78 89 86 84 82 79 74 59 35 18 8 6 5 4 8 21 43 40 22 42 56 77 46 43 30 33 34 42 45 37 43 52 56 72 60 76 88 73 71 58 62 67 71 58 46 46
78 79 91 90 84 83 80 76 64 35 16 9 6 5 4 3 2 17 41 45 62 53 75 29 24 58 47 56 54 51 43 49 56 77 67 72 89 66 60 63 67 68 74 68 56 46 48
86 96 99 100 99 93 85 77 59 30 11 8 7 6 5 4 10 40 37 63 68 72 80 46 40 36 36 35 59 52 45 50 63 77 78 86 66 58 64 68 74 71 70 65 63 54 51
99 100 99 97 99 99 90 72 49 22 10 8 7 6 6 5 14 6 61 69 62 62 77 55 42 47 55 46 56 44 52 51 66 75 75 80 61 63 64 72 70 77 56 56 60 64 79
98 100 99 97 96 97 74 62 77 83 51 16 13 11 9 8 6 6 48 64 62 72 72 41 46 55 51 42 55 57 48 60 75 69 68 74 56 73 71 63 53 63 51 54 56 67 71
96 93 92 85 63 86 95 99 94 94 94 44 14 12 13 13 10 11 37 53 63 78 73 56 61 66 60 57 59 72 63 57 63 70 70 66 49 55 60 52 54 50 58 67 69 76 94
62 46 40 64 95 95 93 94 92 92 95 77 27 11 13 14 14 20 37 66 86 95 39 60 70 75 66 70 65 84 81 83 88 87 89 68 66 57 48 58 54 61 74 94 93 98 89
79 75 75 95 96 91 90 90 99 92 92 45 29 20 12 12 11 67 52 88 96 48 65 50 55 75 82 72 68 90 93 91 84 77 87 94 74 64 60 59 72 78 75 89 91 99 88
95 94 96 94 98 92 89 89 89 86 86 22 18 18 44 96 93 49 93 95 74 64 51 50 46 81 80 69 58 93 95 93 81 78 89 94 90 59 59 55 56 80 81 61 85 89 97
96 91 94 92 93 92 92 91 88 85 90 25 21 27 62 52 86 62 78 63 70 59 70 50 58 55 72 64 79 88 95 76 77 75 65 66 83 62 64 58 62 70 66 87 92 97 98
92 89 96 93 81 88 74 80 91 90 82 27 18 56 52 47 54 83 82 67 77 87 78 79 78 72 62 61 52 64 73 65 67 69 70 70 75 73 74 82 83 82 84 80 82 87 89
93 96 84 75 75 68 80 90 89 90 88 24 35 72 44 47 56 92 96 97 96 75 81 70 75 95 92 90 94 65 65 54 54 47 77 77 86 82 85 70 65 59 71 77 93 93 90
95 90 92 84 84 92 94 93 92 90 91 48 49 74 44 54 95 84 60 43 43 38 63 66 90 92 72 90 91 94 90 62 61 70 84 88 99 93 89 71 68 89 76 68 74 81 88
93 90 91 91 90 89 80 91 91 86 65 54 71 90 62 55 62 60 70 55 50 50 62 44 53 65 53 57 68 90 78 70 56 65 66 82 97 92 92 60 78 86 83 79 78 95 74
90 88 85 86 89 88 94 83 73 79 65 60 71 80 84 90 69 77 66 59 52 48 45 40 50 68 88 65 59 69 67 61 49 73 63 85 96 90 82 80 78 80 85 78 88 78 85
96 90 89 90 87 87 88 88 72 69 79 72 73 79 77 87 83 68 61 56 65 50 51 50 66 52 59 80 80 94 73 63 72 69 63 82 94 90 71 78 95 96 87 93 98 99 100
87 83 84 89 88 92 92 88 87 86 83 97 86 88 94 76 85 75 64 66 67 85 43 38 49 60 50 54 55 53 52 54 62 75 63 68 94 91 93 69 66 96 94 89 97 93 95
85 84 86 89 87 91 88 87 87 87 90 92 94 96 98 85 74 65 65 62 63 60 53 41 42 52 50 42 42 42 55 64 62 62 68 91 86 84 92 84 96 93 89 74 85 87 86
91 89 96 94 87 94 90 86 88 90 78 78 83 93 97 97 78 68 70 94 61 51 49 45 47 49 47 48 79 85 69 53 53 62 62 69 74 97 93 90 78 93 90 91 90 90 87
89 91 89 88 89 86 88 88 83 91 71 74 68 84 95 98 84 69 72 73 74 68 65 54 47 40 50 70 88 95 85 59 62 60 48 53 61 84 92 90 84 87 80 94 93 93 92
93 89 87 86 87 86 89 89 90 89 68 79 70 87 98 98 88 95 96 91 65 74 92 72 74 62 59 81 83 91 91 92 91 89 90 73 91 94 89 89 89 85 80 66 95 93 92
89 86 86 88 87 87 88 87 88 90 72 86 91 99 97 96 87 89 96 96 87 74 91 67 60 70 78 91 96 89 89 81 92 93 94 91 96 92 90 95 96 93 62 77 93 91 94
93 87 86 88 85 87 87 88 87 89 75 88 90 90 86 100 85 86 78 67 70 58 86 86 77 77 80 95 96 98 88 93 94 100 83 95 98 99 98 96 95 96 96 96 96 99 99
Wind_Speed
12 9 10 11 11 13 14 13 14 13 12 11 11 12 13 14 15 16 16 17 18 18 18 16 14 14 12 8 16 12 9 7 6 7 7 5 5 4 3 3 5 5 5 9 12 16 16
14 13 13 12 13 14 12 12 14 13 13 12 12 13 14 15 16 17 18 18 18 18 18 16 13 12 10 6 9 7 7 9 8 8 7 5 4 2 4 4 2 6 9 14 15 21 17
13 12 11 12 16 13 12 13 13 14 15 14 15 15 16 17 18 18 19 19 20 18 18 15 12 12 14 24 9 9 10 8 10 9 8 7 7 5 2 4 6 8 6 9 14 13 7
11 10 12 13 12 11 13 14 17 18 17 17 17 17 18 18 18 19 20 21 20 18 16 13 10 9 12 6 12 17 16 11 13 11 9 8 5 5 4 5 6 4 2 3 5 2 4
14 12 12 11 10 12 16 18 21 21 19 19 19 19 19 19 20 20 20 20 19 15 12 9 6 7 12 9 15 17 21 16 15 10 9 6 4 3 2 2 4 2 3 4 8 6 3
14 14 13 13 16 16 17 20 23 23 23 20 20 20 20 20 20 20 21 18 14 9 6 5 8 5 11 6 5 9 18 16 17 12 7 6 5 2 1 3 4 5 4 4 5 5 6
13 13 12 15 17 17 18 21 24 24 24 23 21 20 20 20 20 19 17 14 6 3 6 10 7 9 2 6 6 7 12 18 15 13 5 6 3 8 11 8 3 1 3 7 6 6 3
13 11 10 12 15 17 20 23 26 26 25 24 22 21 20 20 21 14 11 6 5 8 12 21 27 30 23 3 3 11 14 16 12 7 5 1 8 10 8 6 7 7 7 7 6 5 2
12 11 9 10 12 18 24 27 28 29 27 24 23 22 22 20 14 8 11 5 11 10 6 14 12 12 17 24 12 10 23 17 5 6 7 7 6 2 11 9 8 7 7 4 7 4 4
8 7 6 10 14 20 27 29 31 29 27 25 23 22 21 23 7 15 5 7 10 6 3 6 3 2 5 6 6 26 22 13 6 11 6 8 13 11 4 6 10 4 7 7 4 1 3
9 10 10 15 20 26 29 28 25 26 27 26 24 21 21 17 20 13 8 8 6 6 5 3 3 4 8 7 1 3 22 18 7 6 6 8 4 7 15 17 6 6 4 4 3 1 2
12 14 18 21 24 21 20 21 25 26 28 28 25 23 20 18 19 12 7 5 2 4 7 3 3 4 3 2 2 1 5 13 8 4 8 8 6 2 5 7 13 4 4 5 3 3 2
16 18 19 18 18 20 21 23 24 25 27 28 27 24 19 20 14 12 6 2 3 4 2 5 5 5 4 6 4 6 6 9 7 7 9 7 18 4 6 3 2 5 7 1 1 2 6
15 17 18 18 19 20 20 22 23 25 27 26 28 24 19 17 16 8 10 2 9 4 7 4 3 5 6 7 6 7 6 6 7 2 2 5 6 13 11 15 6 7 8 5 7 4 4
18 18 17 17 18 18 19 21 22 25 29 28 30 24 9 9 7 13 8 7 6 6 5 7 5 4 4 5 5 5 8 5 8 15 10 6 6 2 5 5 14 6 7 5 5 3 2
18 18 15 16 17 19 20 20 23 25 29 29 29 24 3 14 10 14 6 8 4 5 10 4 4 4 4 2 4 7 9 5 5 13 6 5 3 2 2 6 2 8 6 3 2 6 6
15 16 16 16 16 18 19 20 24 26 29 31 27 11 10 17 4 13 7 5 4 21 17 7 5 5 5 5 5 5 2 4 3 4 12 5 5 3 4 7 12 4 5 4 4 5 5
16 14 15 17 18 20 20 21 23 25 29 29 18 4 17 17 5 5 4 7 10 10 13 6 4 6 5 8 4 3 6 3 16 5 4 3 4 9 11 5 9 17 14 11 4 5 3
16 18 19 19 19 20 21 21 22 22 24 28 16 8 15 12 3 4 4 8 7 11 6 7 7 6 8 6 4 7 8 14 27 11 2 5 4 8 3 0 1 6 5 11 3 3 6
16 18 19 19 20 21 21 22 22 22 22 23 7 3 8 6 7 4 5 4 8 6 3 4 4 2 6 3 3 7 11 7 24 13 16 8 3 8 7 0 4 7 8 14 13 6 9
15 17 18 20 22 22 23 22 21 20 20 17 4 3 3 4 3 5 3 4 5 5 5 9 2 3 1 4 7 1 5 12 7 5 10 6 4 5 9 13 5 2 5 13 16 19 10
18 16 17 19 21 23 24 22 21 20 18 12 4 3 5 12 11 6 3 2 6 3 2 2 2 5 2 3 5 4 5 4 7 4 4 3 4 7 6 8 10 14 8 6 7 3 7
16 18 19 19 21 23 24 23 23 23 18 6 7 10 5 8 3 3 3 1 5 5 6 2 3 1 3 1 11 19 22 22 15 7 7 3 2 3 4 10 12 8 5 7 5 13 6
18 17 18 21 22 23 24 24 23 22 19 15 13 13 4 4 3 7 9 13 6 5 4 3 4 1 3 14 17 19 20 20 18 16 17 4 3 5 3 2 4 6 11 15 17 14 15
16 19 21 22 23 25 26 24 24 22 17 14 12 10 5 3 6 11 12 7 11 5 3 3 4 8 16 11 3 5 4 3 4 8 9 14 8 2 3 3 2 4 9 8 7 8 15
18 19 21 22 24 26 23 23 24 21 17 13 14 9 8 4 5 10 4 2 2 2 4 3 10 10 8 1 2 2 2 3 4 8 9 9 13 4 4 2 2 8 16 14 10 4 15
19 20 21 23 26 24 23 24 25 22 18 14 14 8 9 7 6 12 4 3 2 1 1 3 6 5 7 2 2 2 2 5 3 5 6 4 3 5 7 3 5 12 19 21 4 3 18
21 21 22 24 26 23 24 23 22 21 18 12 14 7 8 5 10 8 6 3 5 4 2 4 4 4 3 4 2 3 2 2 3 3 4 4 4 4 3 3 1 26 7 6 7 13 15
22 21 22 25 25 23 24 22 21 18 17 11 6 4 7 5 5 8 3 4 4 4 4 1 0 2 1 1 0 2 2 2 2 1 4 3 1 1 3 3 5 11 11 11 11 12 18
Wind_Direction
41 41 31 35 25 26 20 14 14 12 2 348 334 331 331 329 329 326 321 317 313 308 303 301 295 287 287 267 258 254 264 229 229 234 209 193 215 204 222 243 310 217 267 274 280 296 289
50 44 29 39 17 14 21 13 13 10 357 349 342 337 337 333 331 328 323 319 315 305 301 298 291 276 267 249 261 240 221 221 225 206 186 202 203 241 263 255 199 302 297 288 290 283 280
45 35 21 16 7 20 19 17 5 1 357 355 346 340 336 333 330 327 323 320 313 306 296 291 285 264 254 253 255 234 232 241 212 213 205 214 239 244 298 291 310 290 304 306 274 267 250
33 8 1 354 19 15 4 4 1 359 355 349 341 335 332 329 328 326 323 319 312 304 294 281 267 257 257 255 225 209 211 206 199 206 220 220 236 254 220 288 329 308 345 319 287 334 256
3 11 24 34 16 5 18 15 10 1 350 343 340 336 331 328 325 324 323 318 312 299 286 265 247 243 266 252 234 226 219 221 210 212 216 199 230 213 202 105 353 310 248 232 310 325 301
22 23 18 11 20 13 14 12 7 2 357 350 344 340 334 327 323 322 328 326 314 296 260 233 195 258 256 252 235 221 216 221 196 192 191 197 195 154 87 125 226 200 228 268 258 294 341
15 19 16 4 7 4 360 357 357 354 352 350 346 344 340 336 329 321 324 344 328 295 248 223 226 225 271 233 204 215 209 198 196 184 176 190 153 209 202 204 213 354 256 252 269 263 288
5 8 358 349 350 346 342 345 345 345 344 343 342 340 338 339 332 326 340 358 322 305 298 273 259 250 238 174 256 215 187 186 193 201 160 169 236 228 210 200 222 243 260 262 274 272 298
357 2 355 344 346 332 328 334 333 335 336 337 337 334 332 334 340 351 334 351 334 302 267 287 256 250 254 231 231 208 188 198 182 187 199 186 225 207 200 227 220 227 221 220 250 319 283
6 10 349 318 318 321 320 328 328 330 330 330 330 328 329 326 317 335 340 339 339 325 333 271 223 224 177 178 226 223 204 188 207 205 195 238 236 245 214 220 192 231 213 229 265 128 243
327 327 324 319 316 313 321 325 334 336 329 325 323 322 320 322 307 322 305 305 315 328 344 220 186 171 177 183 9 194 209 204 194 188 154 234 226 207 227 233 183 218 174 171 161 186 7
316 312 308 309 316 335 342 342 336 335 332 326 317 312 312 306 295 305 279 294 264 50 255 277 155 168 134 221 234 208 165 209 220 230 254 237 263 250 214 210 209 168 114 42 47 86 322
312 316 324 336 345 344 340 339 341 338 335 337 327 316 305 288 281 288 269 247 42 175 327 215 206 172 198 193 215 183 171 184 186 192 232 275 246 230 183 185 107 128 126 313 264 197 234
347 348 351 355 356 345 344 348 351 346 342 342 335 326 311 293 280 229 235 64 221 220 257 295 187 162 186 160 239 187 163 196 245 156 120 186 305 194 193 202 169 178 159 160 200 198 241
7 5 3 0 358 356 358 358 355 350 345 347 341 338 344 357 304 199 197 212 212 202 264 356 321 175 228 227 208 147 198 213 205 186 189 191 262 210 193 168 164 186 199 178 84 48 42
10 4 359 355 355 358 356 357 351 349 345 353 345 334 50 11 330 189 204 237 237 10 353 9 305 221 229 261 173 184 184 214 220 193 184 227 256 216 199 113 111 156 167 134 161 198 224
359 358 359 353 356 353 353 356 353 352 347 356 355 346 10 338 318 191 229 233 353 5 11 348 356 319 302 286 234 233 254 288 232 13 205 189 173 265 133 200 164 149 193 201 151 165 168
16 6 1 357 353 354 353 351 351 353 349 0 350 341 5 360 31 357 22 352 352 354 11 347 338 14 348 339 302 272 230 288 10 349 311 263 251 220 207 223 203 201 196 175 152 191 222
16 11 6 360 355 352 351 348 346 347 350 353 338 309 358 16 58 343 314 330 322 341 14 4 19 18 1 345 322 4 350 350 12 24 18 327 222 231 188 245 267 216 193 207 134 96 195
7 4 358 355 354 350 346 346 345 344 347 353 341 344 338 1 15 38 330 320 347 14 104 350 47 76 352 311 25 319 340 343 333 359 352 322 248 275 258 5 150 192 198 208 217 219 220
2 7 354 356 354 348 348 346 341 340 343 353 341 311 355 311 326 324 247 276 331 337 16 22 41 21 234 306 317 115 331 326 303 345 13 19 281 1 312 271 263 240 207 212 213 229 207
3 358 354 354 350 348 350 348 346 343 336 340 312 334 318 291 290 300 335 285 302 343 157 275 171 286 268 201 209 265 279 282 269 294 359 50 300 353 298 324 262 250 227 237 244 212 265
355 354 355 349 348 346 344 341 340 342 339 317 294 297 276 275 285 284 236 323 306 298 268 335 292 231 272 340 303 286 273 264 250 253 298 275 222 354 269 359 344 255 8 323 278 49 337
4 356 349 343 343 344 341 337 335 336 332 319 302 300 232 270 256 276 290 299 306 236 251 279 13 88 298 326 308 297 279 255 253 250 223 213 211 177 265 13 241 91 30 42 82 49 29
349 352 350 343 346 342 341 337 335 335 333 326 314 297 232 251 259 292 268 273 281 275 281 273 17 319 318 306 323 322 318 310 264 246 230 212 220 244 214 211 116 48 24 345 8 56 16
351 347 347 349 342 340 340 341 334 337 334 329 336 297 258 257 245 266 234 259 238 276 330 280 329 341 355 335 44 266 289 306 327 332 337 173 199 223 179 168 238 33 330 304 294 136 3
341 346 347 346 340 342 339 339 338 337 335 325 331 310 267 251 272 316 214 219 184 107 193 301 326 337 16 16 285 276 284 302 1 16 340 9 353 242 256 240 92 344 320 313 215 355 337
338 343 346 342 340 340 338 337 334 330 332 330 335 320 296 274 295 357 348 24 37 24 134 312 347 2 20 32 82 290 326 319 85 14 0 43 341 26 14 33 225 350 16 55 314 327 342
334 338 345 341 339 340 338 337 334 331 331 335 342 332 336 262 290 320 338 40 354 312 284 314 295 288 340 61 318 278 312 354 167 180 5 32 128 55 30 100 74 31 69 18 5 348 351